Year,Month,Day,Hour,Minute,Value (Times are PST for windspeed in km/hr)
2020,02,02,00,00,3.10
2020,02,02,00,01,5.80
2020,02,02,00,02,7.80
2020,02,02,00,03,6.40
2020,02,02,00,04,6.40
2020,02,02,00,05,6.40
2020,02,02,00,06,6.40
2020,02,02,00,07,6.40
2020,02,02,00,08,6.40
2020,02,02,00,09,2.80
2020,02,02,00,10,0.90
2020,02,02,00,11,4.30
2020,02,02,00,12,5.30
2020,02,02,00,13,1.50
2020,02,02,00,14,3.90
2020,02,02,00,15,5.50
2020,02,02,00,16,4.50
2020,02,02,00,17,3.30
2020,02,02,00,18,4.10
2020,02,02,00,19,3.40
2020,02,02,00,20,3.40
2020,02,02,00,21,3.90
2020,02,02,00,22,3.90
2020,02,02,00,23,5.50
2020,02,02,00,24,5.70
2020,02,02,00,25,6.50
2020,02,02,00,26,5.70
2020,02,02,00,27,5.90
2020,02,02,00,28,5.10
2020,02,02,00,29,3.70
2020,02,02,00,30,3.30
2020,02,02,00,31,3.40
2020,02,02,00,32,0.80
2020,02,02,00,33,0.00
2020,02,02,00,34,0.00
2020,02,02,00,35,0.00
2020,02,02,00,36,0.10
2020,02,02,00,37,2.60
2020,02,02,00,38,0.80
2020,02,02,00,39,1.10
2020,02,02,00,40,0.00
2020,02,02,00,41,0.00
2020,02,02,00,42,0.00
2020,02,02,00,43,0.00
2020,02,02,00,44,0.00
2020,02,02,00,45,0.00
2020,02,02,00,46,0.00
2020,02,02,00,47,0.00
2020,02,02,00,48,0.00
2020,02,02,00,49,0.00
2020,02,02,00,50,0.00
2020,02,02,00,51,0.00
2020,02,02,00,52,0.00
2020,02,02,00,53,0.00
2020,02,02,00,54,0.00
2020,02,02,00,55,0.00
2020,02,02,00,56,1.00
2020,02,02,00,57,3.40
2020,02,02,00,58,4.50
2020,02,02,00,59,3.30
2020,02,02,01,00,4.10
2020,02,02,01,01,6.20
2020,02,02,01,02,7.10
2020,02,02,01,03,9.30
2020,02,02,01,04,8.40
2020,02,02,01,05,7.40
2020,02,02,01,06,8.40
2020,02,02,01,07,5.60
2020,02,02,01,08,4.90
2020,02,02,01,09,5.80
2020,02,02,01,10,4.40
2020,02,02,01,11,2.80
2020,02,02,01,12,4.00
2020,02,02,01,13,1.50
2020,02,02,01,14,0.00
2020,02,02,01,15,2.70
2020,02,02,01,16,4.80
2020,02,02,01,17,4.00
2020,02,02,01,18,1.30
2020,02,02,01,19,3.90
2020,02,02,01,20,7.20
2020,02,02,01,21,7.80
2020,02,02,01,22,8.90
2020,02,02,01,23,7.50
2020,02,02,01,24,7.50
2020,02,02,01,25,5.30
2020,02,02,01,26,5.20
2020,02,02,01,27,6.40
2020,02,02,01,28,6.20
2020,02,02,01,29,5.20
2020,02,02,01,30,2.60
2020,02,02,01,31,2.40
2020,02,02,01,32,2.40
2020,02,02,01,33,5.00
2020,02,02,01,34,6.80
2020,02,02,01,35,9.70
2020,02,02,01,36,11.20
2020,02,02,01,37,10.50
2020,02,02,01,38,9.90
2020,02,02,01,39,9.80
2020,02,02,01,40,10.70
2020,02,02,01,41,8.70
2020,02,02,01,42,7.40
2020,02,02,01,43,6.80
2020,02,02,01,44,5.00
2020,02,02,01,45,5.90
2020,02,02,01,46,5.80
2020,02,02,01,47,5.20
2020,02,02,01,48,4.10
2020,02,02,01,49,3.90
2020,02,02,01,50,2.40
2020,02,02,01,51,0.00
2020,02,02,01,52,4.00
2020,02,02,01,53,4.90
2020,02,02,01,54,4.20
2020,02,02,01,55,5.00
2020,02,02,01,56,5.80
2020,02,02,01,57,4.80
2020,02,02,01,58,3.50
2020,02,02,01,59,4.90
2020,02,02,02,00,5.60
2020,02,02,02,01,5.60
2020,02,02,02,02,4.50
2020,02,02,02,03,3.60
2020,02,02,02,04,3.10
2020,02,02,02,05,0.60
2020,02,02,02,06,0.00
2020,02,02,02,07,0.00
2020,02,02,02,08,0.00
2020,02,02,02,09,0.00
2020,02,02,02,10,0.00
2020,02,02,02,11,0.00
2020,02,02,02,12,0.00
2020,02,02,02,13,0.00
2020,02,02,02,14,0.00
2020,02,02,02,15,0.00
2020,02,02,02,16,0.00
2020,02,02,02,17,0.00
2020,02,02,02,18,0.00
2020,02,02,02,19,0.00
2020,02,02,02,20,0.00
2020,02,02,02,21,0.00
2020,02,02,02,22,0.00
2020,02,02,02,23,0.00
2020,02,02,02,24,0.00
2020,02,02,02,25,0.00
2020,02,02,02,26,0.00
2020,02,02,02,27,0.00
2020,02,02,02,28,0.00
2020,02,02,02,29,0.00
2020,02,02,02,30,0.00
2020,02,02,02,31,0.00
2020,02,02,02,32,0.00
2020,02,02,02,33,0.00
2020,02,02,02,34,0.00
2020,02,02,02,35,0.00
2020,02,02,02,36,0.00
2020,02,02,02,37,0.00
2020,02,02,02,38,0.00
2020,02,02,02,39,0.00
2020,02,02,02,40,0.00
2020,02,02,02,41,0.00
2020,02,02,02,42,0.00
2020,02,02,02,43,0.00
2020,02,02,02,44,0.00
2020,02,02,02,45,0.00
2020,02,02,02,46,0.00
2020,02,02,02,47,1.70
2020,02,02,02,48,6.20
2020,02,02,02,49,3.20
2020,02,02,02,50,3.40
2020,02,02,02,51,5.70
2020,02,02,02,52,8.30
2020,02,02,02,53,10.10
2020,02,02,02,54,11.30
2020,02,02,02,55,9.30
2020,02,02,02,56,10.00
2020,02,02,02,57,8.50
2020,02,02,02,58,7.90
2020,02,02,02,59,7.70
2020,02,02,03,00,6.90
2020,02,02,03,01,6.50
2020,02,02,03,02,7.50
2020,02,02,03,03,9.60
2020,02,02,03,04,7.00
2020,02,02,03,05,8.10
2020,02,02,03,06,8.10
2020,02,02,03,07,4.50
2020,02,02,03,08,2.80
2020,02,02,03,09,2.30
2020,02,02,03,10,5.70
2020,02,02,03,11,5.80
2020,02,02,03,12,4.80
2020,02,02,03,13,3.50
2020,02,02,03,14,1.40
2020,02,02,03,15,2.20
2020,02,02,03,16,5.40
2020,02,02,03,17,4.20
2020,02,02,03,18,4.30
2020,02,02,03,19,7.30
2020,02,02,03,20,4.20
2020,02,02,03,21,3.70
2020,02,02,03,22,6.70
2020,02,02,03,23,5.70
2020,02,02,03,24,5.10
2020,02,02,03,25,4.20
2020,02,02,03,26,6.10
2020,02,02,03,27,7.60
2020,02,02,03,28,7.20
2020,02,02,03,29,6.80
2020,02,02,03,30,4.90
2020,02,02,03,31,5.60
2020,02,02,03,32,4.70
2020,02,02,03,33,4.80
2020,02,02,03,34,4.80
2020,02,02,03,35,4.80
2020,02,02,03,36,4.80
2020,02,02,03,37,4.80
2020,02,02,03,38,4.80
2020,02,02,03,39,4.80
2020,02,02,03,40,4.80
2020,02,02,03,41,4.00
2020,02,02,03,42,4.80
2020,02,02,03,43,5.10
2020,02,02,03,44,6.10
2020,02,02,03,45,5.70
2020,02,02,03,46,4.10
2020,02,02,03,47,6.60
2020,02,02,03,48,6.50
2020,02,02,03,49,6.70
2020,02,02,03,50,6.30
2020,02,02,03,51,6.70
2020,02,02,03,52,5.70
2020,02,02,03,53,6.80
2020,02,02,03,54,7.80
2020,02,02,03,55,5.50
2020,02,02,03,56,5.20
2020,02,02,03,57,4.10
2020,02,02,03,58,4.70
2020,02,02,03,59,4.60
2020,02,02,04,00,5.10
2020,02,02,04,01,5.20
2020,02,02,04,02,5.40
2020,02,02,04,03,6.40
2020,02,02,04,04,6.60
2020,02,02,04,05,6.10
2020,02,02,04,06,5.00
2020,02,02,04,07,4.40
2020,02,02,04,08,4.70
2020,02,02,04,09,7.10
2020,02,02,04,10,5.70
2020,02,02,04,11,5.90
2020,02,02,04,12,6.10
2020,02,02,04,13,4.90
2020,02,02,04,14,4.70
2020,02,02,04,15,3.80
2020,02,02,04,16,3.40
2020,02,02,04,17,4.00
2020,02,02,04,18,5.70
2020,02,02,04,19,6.40
2020,02,02,04,20,5.80
2020,02,02,04,21,7.00
2020,02,02,04,22,8.80
2020,02,02,04,23,8.30
2020,02,02,04,24,5.80
2020,02,02,04,25,7.90
2020,02,02,04,26,8.50
2020,02,02,04,27,6.20
2020,02,02,04,28,4.10
2020,02,02,04,29,8.10
2020,02,02,04,30,9.10
2020,02,02,04,31,10.70
2020,02,02,04,32,10.10
2020,02,02,04,33,10.30
2020,02,02,04,34,9.60
2020,02,02,04,35,9.60
2020,02,02,04,36,9.60
2020,02,02,04,37,9.60
2020,02,02,04,38,6.70
2020,02,02,04,39,4.80
2020,02,02,04,40,10.70
2020,02,02,04,41,8.80
2020,02,02,04,42,10.70
2020,02,02,04,43,12.00
2020,02,02,04,44,6.00
2020,02,02,04,45,7.40
2020,02,02,04,46,9.50
2020,02,02,04,47,8.00
2020,02,02,04,48,9.90
2020,02,02,04,49,9.60
2020,02,02,04,50,10.40
2020,02,02,04,51,9.00
2020,02,02,04,52,5.30
2020,02,02,04,53,5.20
2020,02,02,04,54,8.60
2020,02,02,04,55,9.40
2020,02,02,04,56,9.90
2020,02,02,04,57,10.80
2020,02,02,04,58,9.20
2020,02,02,04,59,4.40
2020,02,02,05,00,7.70
2020,02,02,05,01,5.90
2020,02,02,05,02,6.60
2020,02,02,05,03,4.00
2020,02,02,05,04,4.50
2020,02,02,05,05,3.40
2020,02,02,05,06,2.50
2020,02,02,05,07,3.60
2020,02,02,05,08,5.80
2020,02,02,05,09,6.20
2020,02,02,05,10,3.20
2020,02,02,05,11,2.10
2020,02,02,05,12,2.50
2020,02,02,05,13,4.00
2020,02,02,05,14,5.30
2020,02,02,05,15,5.10
2020,02,02,05,16,6.90
2020,02,02,05,17,6.90
2020,02,02,05,18,7.00
2020,02,02,05,19,9.00
2020,02,02,05,20,7.00
2020,02,02,05,21,3.20
2020,02,02,05,22,4.10
2020,02,02,05,23,6.10
2020,02,02,05,24,4.40
2020,02,02,05,25,5.20
2020,02,02,05,26,2.10
2020,02,02,05,27,2.00
2020,02,02,05,28,2.60
2020,02,02,05,29,1.50
2020,02,02,05,30,2.10
2020,02,02,05,31,3.60
2020,02,02,05,32,2.20
2020,02,02,05,33,1.20
2020,02,02,05,34,2.30
2020,02,02,05,35,1.50
2020,02,02,05,36,0.20
2020,02,02,05,37,1.00
2020,02,02,05,38,1.00
2020,02,02,05,39,3.10
2020,02,02,05,40,3.10
2020,02,02,05,41,4.40
2020,02,02,05,42,2.80
2020,02,02,05,43,2.40
2020,02,02,05,44,2.40
2020,02,02,05,45,3.80
2020,02,02,05,46,4.30
2020,02,02,05,47,6.80
2020,02,02,05,48,6.70
2020,02,02,05,49,6.60
2020,02,02,05,50,7.40
2020,02,02,05,51,5.40
2020,02,02,05,52,4.30
2020,02,02,05,53,4.40
2020,02,02,05,54,4.80
2020,02,02,05,55,4.80
2020,02,02,05,56,4.80
2020,02,02,05,57,4.60
2020,02,02,05,58,6.20
2020,02,02,05,59,7.10
2020,02,02,06,00,5.20
2020,02,02,06,01,4.10
2020,02,02,06,02,4.50
2020,02,02,06,03,4.30
2020,02,02,06,04,4.80
2020,02,02,06,05,4.00
2020,02,02,06,06,0.80
2020,02,02,06,07,1.20
2020,02,02,06,08,1.00
2020,02,02,06,09,2.50
2020,02,02,06,10,5.40
2020,02,02,06,11,6.60
2020,02,02,06,12,5.20
2020,02,02,06,13,2.80
2020,02,02,06,14,4.60
2020,02,02,06,15,8.00
2020,02,02,06,16,5.30
2020,02,02,06,17,4.30
2020,02,02,06,18,4.00
2020,02,02,06,19,7.20
2020,02,02,06,20,6.20
2020,02,02,06,21,1.30
2020,02,02,06,22,1.20
2020,02,02,06,23,1.50
2020,02,02,06,24,0.50
2020,02,02,06,25,0.40
2020,02,02,06,26,0.00
2020,02,02,06,27,0.00
2020,02,02,06,28,0.00
2020,02,02,06,29,0.00
2020,02,02,06,30,0.00
2020,02,02,06,31,0.00
2020,02,02,06,32,0.00
2020,02,02,06,33,0.00
2020,02,02,06,34,0.00
2020,02,02,06,35,0.00
2020,02,02,06,36,0.00
2020,02,02,06,37,0.00
2020,02,02,06,38,0.00
2020,02,02,06,39,0.00
2020,02,02,06,40,0.00
2020,02,02,06,41,0.00
2020,02,02,06,42,0.00
2020,02,02,06,43,0.00
2020,02,02,06,44,0.00
2020,02,02,06,45,0.00
2020,02,02,06,46,0.70
2020,02,02,06,47,2.90
2020,02,02,06,48,2.60
2020,02,02,06,49,3.50
2020,02,02,06,50,2.40
2020,02,02,06,51,2.40
2020,02,02,06,52,5.30
2020,02,02,06,53,5.30
2020,02,02,06,54,5.10
2020,02,02,06,55,4.70
2020,02,02,06,56,3.70
2020,02,02,06,57,3.80
2020,02,02,06,58,3.90
2020,02,02,06,59,3.20
2020,02,02,07,00,3.10
2020,02,02,07,01,3.00
2020,02,02,07,02,3.60
2020,02,02,07,03,4.10
2020,02,02,07,04,4.90
2020,02,02,07,05,4.90
2020,02,02,07,06,4.60
2020,02,02,07,07,5.20
2020,02,02,07,08,4.10
2020,02,02,07,09,3.80
2020,02,02,07,10,3.80
2020,02,02,07,11,3.70
2020,02,02,07,12,3.70
2020,02,02,07,13,3.40
2020,02,02,07,14,3.20
2020,02,02,07,15,3.00
2020,02,02,07,16,3.70
2020,02,02,07,17,2.70
2020,02,02,07,18,3.10
2020,02,02,07,19,4.60
2020,02,02,07,20,3.40
2020,02,02,07,21,3.40
2020,02,02,07,22,4.00
2020,02,02,07,23,5.10
2020,02,02,07,24,5.70
2020,02,02,07,25,3.90
2020,02,02,07,26,4.50
2020,02,02,07,27,3.20
2020,02,02,07,28,2.70
2020,02,02,07,29,3.20
2020,02,02,07,30,4.70
2020,02,02,07,31,5.70
2020,02,02,07,32,3.70
2020,02,02,07,33,3.40
2020,02,02,07,34,3.50
2020,02,02,07,35,4.10
2020,02,02,07,36,4.70
2020,02,02,07,37,5.10
2020,02,02,07,38,5.60
2020,02,02,07,39,5.10
2020,02,02,07,40,5.50
2020,02,02,07,41,6.10
2020,02,02,07,42,5.40
2020,02,02,07,43,6.10
2020,02,02,07,44,6.10
2020,02,02,07,45,5.30
2020,02,02,07,46,5.30
2020,02,02,07,47,6.10
2020,02,02,07,48,5.60
2020,02,02,07,49,6.00
2020,02,02,07,50,6.80
2020,02,02,07,51,6.40
2020,02,02,07,52,8.30
2020,02,02,07,53,8.90
2020,02,02,07,54,9.50
2020,02,02,07,55,8.40
2020,02,02,07,56,6.50
2020,02,02,07,57,3.90
2020,02,02,07,58,2.90
2020,02,02,07,59,4.50
2020,02,02,08,00,4.30
2020,02,02,08,01,5.70
2020,02,02,08,02,7.80
2020,02,02,08,03,6.70
2020,02,02,08,04,6.80
2020,02,02,08,05,8.10
2020,02,02,08,06,6.40
2020,02,02,08,07,7.00
2020,02,02,08,08,8.40
2020,02,02,08,09,7.10
2020,02,02,08,10,5.80
2020,02,02,08,11,6.30
2020,02,02,08,12,4.70
2020,02,02,08,13,3.90
2020,02,02,08,14,4.90
2020,02,02,08,15,5.00
2020,02,02,08,16,1.80
2020,02,02,08,17,3.70
2020,02,02,08,18,4.10
2020,02,02,08,19,3.90
2020,02,02,08,20,3.20
2020,02,02,08,21,2.40
2020,02,02,08,22,2.40
2020,02,02,08,23,2.30
2020,02,02,08,24,0.10
2020,02,02,08,25,0.00
2020,02,02,08,26,0.00
2020,02,02,08,27,0.00
2020,02,02,08,28,0.00
2020,02,02,08,29,0.00
2020,02,02,08,30,0.00
2020,02,02,08,31,0.00
2020,02,02,08,32,0.00
2020,02,02,08,33,0.00
2020,02,02,08,34,0.00
2020,02,02,08,35,0.00
2020,02,02,08,36,0.00
2020,02,02,08,37,0.00
2020,02,02,08,38,0.00
2020,02,02,08,39,0.00
2020,02,02,08,40,0.00
2020,02,02,08,41,0.00
2020,02,02,08,42,0.00
2020,02,02,08,43,0.00
2020,02,02,08,44,0.00
2020,02,02,08,45,0.00
2020,02,02,08,46,0.00
2020,02,02,08,47,0.00
2020,02,02,08,48,0.00
2020,02,02,08,49,0.00
2020,02,02,08,50,0.00
2020,02,02,08,51,0.00
2020,02,02,08,52,0.00
2020,02,02,08,53,0.00
2020,02,02,08,54,0.00
2020,02,02,08,55,0.00
2020,02,02,08,56,3.20
2020,02,02,08,57,7.80
2020,02,02,08,58,7.20
2020,02,02,08,59,4.50
2020,02,02,09,00,1.90
2020,02,02,09,01,0.00
2020,02,02,09,02,0.00
2020,02,02,09,03,0.00
2020,02,02,09,04,0.80
2020,02,02,09,05,1.50
2020,02,02,09,06,1.30
2020,02,02,09,07,2.50
2020,02,02,09,08,6.10
2020,02,02,09,09,4.70
2020,02,02,09,10,3.20
2020,02,02,09,11,5.10
2020,02,02,09,12,5.70
2020,02,02,09,13,5.30
2020,02,02,09,14,1.70
2020,02,02,09,15,1.70
2020,02,02,09,16,5.30
2020,02,02,09,17,3.60
2020,02,02,09,18,3.30
2020,02,02,09,19,0.40
2020,02,02,09,20,1.20
2020,02,02,09,21,1.70
2020,02,02,09,22,2.00
2020,02,02,09,23,5.40
2020,02,02,09,24,6.80
2020,02,02,09,25,5.10
2020,02,02,09,26,1.50
2020,02,02,09,27,2.10
2020,02,02,09,28,5.40
2020,02,02,09,29,7.80
2020,02,02,09,30,7.80
2020,02,02,09,31,6.10
2020,02,02,09,32,6.90
2020,02,02,09,33,4.80
2020,02,02,09,34,8.10
2020,02,02,09,35,7.50
2020,02,02,09,36,6.00
2020,02,02,09,37,6.60
2020,02,02,09,38,7.00
2020,02,02,09,39,5.30
2020,02,02,09,40,7.20
2020,02,02,09,41,7.30
2020,02,02,09,42,7.40
2020,02,02,09,43,6.70
2020,02,02,09,44,7.10
2020,02,02,09,45,7.10
2020,02,02,09,46,7.30
2020,02,02,09,47,8.40
2020,02,02,09,48,6.10
2020,02,02,09,49,7.70
2020,02,02,09,50,8.20
2020,02,02,09,51,8.50
2020,02,02,09,52,6.80
2020,02,02,09,53,6.50
2020,02,02,09,54,7.80
2020,02,02,09,55,7.50
2020,02,02,09,56,7.90
2020,02,02,09,57,6.10
2020,02,02,09,58,5.30
2020,02,02,09,59,5.50
2020,02,02,10,00,5.10
2020,02,02,10,01,4.90
2020,02,02,10,02,4.80
2020,02,02,10,03,4.60
2020,02,02,10,04,4.80
2020,02,02,10,05,4.00
2020,02,02,10,06,5.40
2020,02,02,10,07,4.80
2020,02,02,10,08,4.60
2020,02,02,10,09,4.90
2020,02,02,10,10,5.20
2020,02,02,10,11,4.70
2020,02,02,10,12,4.70
2020,02,02,10,13,4.90
2020,02,02,10,14,4.30
2020,02,02,10,15,6.00
2020,02,02,10,16,5.50
2020,02,02,10,17,6.70
2020,02,02,10,18,5.70
2020,02,02,10,19,4.20
2020,02,02,10,20,4.70
2020,02,02,10,21,3.50
2020,02,02,10,22,5.80
2020,02,02,10,23,9.40
2020,02,02,10,24,8.70
2020,02,02,10,25,5.90
2020,02,02,10,26,4.40
2020,02,02,10,27,4.70
2020,02,02,10,28,5.90
2020,02,02,10,29,2.90
2020,02,02,10,30,1.80
2020,02,02,10,31,3.90
2020,02,02,10,32,7.10
2020,02,02,10,33,5.50
2020,02,02,10,34,5.70
2020,02,02,10,35,4.50
2020,02,02,10,36,5.50
2020,02,02,10,37,5.00
2020,02,02,10,38,4.60
2020,02,02,10,39,3.90
2020,02,02,10,40,7.50
2020,02,02,10,41,8.10
2020,02,02,10,42,8.30
2020,02,02,10,43,6.80
2020,02,02,10,44,9.10
2020,02,02,10,45,7.20
2020,02,02,10,46,6.60
2020,02,02,10,47,6.20
2020,02,02,10,48,5.50
2020,02,02,10,49,5.90
2020,02,02,10,50,5.90
2020,02,02,10,51,5.70
2020,02,02,10,52,6.10
2020,02,02,10,53,5.50
2020,02,02,10,54,6.50
2020,02,02,10,55,5.50
2020,02,02,10,56,5.30
2020,02,02,10,57,6.90
2020,02,02,10,58,6.50
2020,02,02,10,59,6.70
2020,02,02,11,00,7.10
2020,02,02,11,01,5.10
2020,02,02,11,02,4.70
2020,02,02,11,03,4.70
2020,02,02,11,04,7.40
2020,02,02,11,05,7.20
2020,02,02,11,06,11.30
2020,02,02,11,07,9.70
2020,02,02,11,08,8.10
2020,02,02,11,09,5.70
2020,02,02,11,10,5.10
2020,02,02,11,11,5.80
2020,02,02,11,12,5.70
2020,02,02,11,13,5.10
2020,02,02,11,14,5.40
2020,02,02,11,15,4.60
2020,02,02,11,16,5.20
2020,02,02,11,17,1.90
2020,02,02,11,18,8.10
2020,02,02,11,19,6.20
2020,02,02,11,20,6.50
2020,02,02,11,21,5.40
2020,02,02,11,22,4.40
2020,02,02,11,23,6.70
2020,02,02,11,24,8.40
2020,02,02,11,25,9.90
2020,02,02,11,26,5.40
2020,02,02,11,27,4.70
2020,02,02,11,28,2.50
2020,02,02,11,29,0.20
2020,02,02,11,30,0.00
2020,02,02,11,31,0.00
2020,02,02,11,32,2.60
2020,02,02,11,33,8.40
2020,02,02,11,34,9.40
2020,02,02,11,35,8.60
2020,02,02,11,36,4.60
2020,02,02,11,37,4.20
2020,02,02,11,38,4.10
2020,02,02,11,39,2.10
2020,02,02,11,40,0.50
2020,02,02,11,41,0.70
2020,02,02,11,42,0.10
2020,02,02,11,43,0.10
2020,02,02,11,44,1.50
2020,02,02,11,45,6.10
2020,02,02,11,46,6.30
2020,02,02,11,47,6.30
2020,02,02,11,48,6.20
2020,02,02,11,49,4.70
2020,02,02,11,50,4.20
2020,02,02,11,51,4.00
2020,02,02,11,52,4.20
2020,02,02,11,53,4.10
2020,02,02,11,54,3.80
2020,02,02,11,55,3.40
2020,02,02,11,56,3.60
2020,02,02,11,57,2.20
2020,02,02,11,58,3.00
2020,02,02,11,59,2.30
2020,02,02,12,00,3.20
2020,02,02,12,01,2.80
2020,02,02,12,02,3.10
2020,02,02,12,03,2.20
2020,02,02,12,04,2.70
2020,02,02,12,05,5.70
2020,02,02,12,06,4.80
2020,02,02,12,07,4.20
2020,02,02,12,08,3.50
2020,02,02,12,09,4.40
2020,02,02,12,10,3.10
2020,02,02,12,11,2.90
2020,02,02,12,12,3.20
2020,02,02,12,13,2.20
2020,02,02,12,14,4.10
2020,02,02,12,15,3.50
2020,02,02,12,16,4.20
2020,02,02,12,17,3.00
2020,02,02,12,18,1.90
2020,02,02,12,19,1.60
2020,02,02,12,20,1.60
2020,02,02,12,21,1.60
2020,02,02,12,22,2.10
2020,02,02,12,23,2.70
2020,02,02,12,24,4.00
2020,02,02,12,25,3.80
2020,02,02,12,26,2.70
2020,02,02,12,27,1.90
2020,02,02,12,28,2.30
2020,02,02,12,29,4.10
2020,02,02,12,30,2.60
2020,02,02,12,31,3.30
2020,02,02,12,32,3.00
2020,02,02,12,33,5.10
2020,02,02,12,34,4.40
2020,02,02,12,35,3.80
2020,02,02,12,36,3.40
2020,02,02,12,37,2.70
2020,02,02,12,38,0.90
2020,02,02,12,39,1.20
2020,02,02,12,40,1.30
2020,02,02,12,41,2.30
2020,02,02,12,42,1.40
2020,02,02,12,43,2.10
2020,02,02,12,44,2.90
2020,02,02,12,45,4.10
2020,02,02,12,46,4.00
2020,02,02,12,47,4.10
2020,02,02,12,48,3.00
2020,02,02,12,49,2.80
2020,02,02,12,50,2.20
2020,02,02,12,51,2.40
2020,02,02,12,52,2.60
2020,02,02,12,53,3.00
2020,02,02,12,54,1.80
2020,02,02,12,55,1.60
2020,02,02,12,56,1.50
2020,02,02,12,57,2.70
2020,02,02,12,58,1.10
2020,02,02,12,59,1.80
2020,02,02,13,00,2.80
2020,02,02,13,01,2.20
2020,02,02,13,02,3.40
2020,02,02,13,03,3.60
2020,02,02,13,04,2.80
2020,02,02,13,05,2.60
2020,02,02,13,06,2.00
2020,02,02,13,07,2.60
2020,02,02,13,08,3.10
2020,02,02,13,09,3.00
2020,02,02,13,10,2.00
2020,02,02,13,11,1.00
2020,02,02,13,12,2.00
2020,02,02,13,13,1.80
2020,02,02,13,14,1.50
2020,02,02,13,15,0.50
2020,02,02,13,16,0.00
2020,02,02,13,17,0.00
2020,02,02,13,18,0.00
2020,02,02,13,19,0.00
2020,02,02,13,20,0.00
2020,02,02,13,21,0.00
2020,02,02,13,22,1.10
2020,02,02,13,23,2.40
2020,02,02,13,24,3.10
2020,02,02,13,25,1.70
2020,02,02,13,26,0.00
2020,02,02,13,27,0.00
2020,02,02,13,28,0.00
2020,02,02,13,29,0.00
2020,02,02,13,30,0.00
2020,02,02,13,31,0.00
2020,02,02,13,32,0.00
2020,02,02,13,33,0.00
2020,02,02,13,34,0.00
2020,02,02,13,35,0.00
2020,02,02,13,36,0.00
2020,02,02,13,37,0.00
2020,02,02,13,38,0.00
2020,02,02,13,39,0.00
2020,02,02,13,40,0.00
2020,02,02,13,41,0.00
2020,02,02,13,42,0.00
2020,02,02,13,43,0.00
2020,02,02,13,44,0.00
2020,02,02,13,45,0.00
2020,02,02,13,46,0.00
2020,02,02,13,47,0.00
2020,02,02,13,48,0.00
2020,02,02,13,49,0.00
2020,02,02,13,50,0.00
2020,02,02,13,51,0.00
2020,02,02,13,52,0.00
2020,02,02,13,53,0.00
2020,02,02,13,54,0.00
2020,02,02,13,55,0.00
2020,02,02,13,56,0.00
2020,02,02,13,57,0.00
2020,02,02,13,58,0.00
2020,02,02,13,59,0.00
2020,02,02,14,00,0.00
2020,02,02,14,01,0.00
2020,02,02,14,02,0.00
2020,02,02,14,03,0.00
2020,02,02,14,04,0.00
2020,02,02,14,05,0.00
2020,02,02,14,06,0.00
2020,02,02,14,07,0.00
2020,02,02,14,08,0.00
2020,02,02,14,09,0.00
2020,02,02,14,10,0.00
2020,02,02,14,11,0.00
2020,02,02,14,12,0.00
2020,02,02,14,13,0.00
2020,02,02,14,14,0.00
2020,02,02,14,15,0.00
2020,02,02,14,16,0.00
2020,02,02,14,17,0.00
2020,02,02,14,18,0.00
2020,02,02,14,19,0.00
2020,02,02,14,20,0.00
2020,02,02,14,21,0.00
2020,02,02,14,22,0.00
2020,02,02,14,23,0.00
2020,02,02,14,24,0.00
2020,02,02,14,25,0.00
2020,02,02,14,26,0.00
2020,02,02,14,27,0.00
2020,02,02,14,28,0.00
2020,02,02,14,29,0.00
2020,02,02,14,30,0.00
2020,02,02,14,31,0.00
2020,02,02,14,32,0.00
2020,02,02,14,33,0.70
2020,02,02,14,34,3.50
2020,02,02,14,35,4.30
2020,02,02,14,36,2.80
2020,02,02,14,37,3.30
2020,02,02,14,38,2.80
2020,02,02,14,39,1.30
2020,02,02,14,40,3.10
2020,02,02,14,41,3.00
2020,02,02,14,42,2.10
2020,02,02,14,43,2.20
2020,02,02,14,44,2.30
2020,02,02,14,45,1.40
2020,02,02,14,46,1.60
2020,02,02,14,47,0.30
2020,02,02,14,48,0.70
2020,02,02,14,49,1.00
2020,02,02,14,50,0.60
2020,02,02,14,51,0.20
2020,02,02,14,52,0.00
2020,02,02,14,53,0.00
2020,02,02,14,54,0.00
2020,02,02,14,55,0.10
2020,02,02,14,56,0.90
2020,02,02,14,57,0.30
2020,02,02,14,58,0.00
2020,02,02,14,59,0.00
2020,02,02,15,00,0.00
2020,02,02,15,01,0.00
2020,02,02,15,02,0.00
2020,02,02,15,03,1.90
2020,02,02,15,04,3.50
2020,02,02,15,05,3.20
2020,02,02,15,06,3.20
2020,02,02,15,07,3.20
2020,02,02,15,08,3.20
2020,02,02,15,09,3.20
2020,02,02,15,10,4.40
2020,02,02,15,11,8.10
2020,02,02,15,12,9.20
2020,02,02,15,13,9.30
2020,02,02,15,14,8.30
2020,02,02,15,15,8.70
2020,02,02,15,16,6.10
2020,02,02,15,17,6.30
2020,02,02,15,18,6.50
2020,02,02,15,19,4.70
2020,02,02,15,20,4.30
2020,02,02,15,21,7.20
2020,02,02,15,22,8.30
2020,02,02,15,23,7.60
2020,02,02,15,24,6.50
2020,02,02,15,25,4.30
2020,02,02,15,26,4.70
2020,02,02,15,27,3.40
2020,02,02,15,28,2.30
2020,02,02,15,29,3.70
2020,02,02,15,30,1.50
2020,02,02,15,31,2.70
2020,02,02,15,32,3.70
2020,02,02,15,33,2.40
2020,02,02,15,34,0.10
2020,02,02,15,35,0.60
2020,02,02,15,36,0.00
2020,02,02,15,37,1.60
2020,02,02,15,38,1.70
2020,02,02,15,39,0.00
2020,02,02,15,40,0.00
2020,02,02,15,41,0.00
2020,02,02,15,42,0.00
2020,02,02,15,43,0.50
2020,02,02,15,44,2.90
2020,02,02,15,45,6.20
2020,02,02,15,46,2.50
2020,02,02,15,47,3.50
2020,02,02,15,48,4.20
2020,02,02,15,49,5.10
2020,02,02,15,50,5.60
2020,02,02,15,51,4.70
2020,02,02,15,52,5.30
2020,02,02,15,53,5.20
2020,02,02,15,54,3.80
2020,02,02,15,55,4.60
2020,02,02,15,56,4.20
2020,02,02,15,57,5.10
2020,02,02,15,58,4.10
2020,02,02,15,59,3.00
2020,02,02,16,00,1.40
2020,02,02,16,01,3.50
2020,02,02,16,02,2.30
2020,02,02,16,03,2.30
2020,02,02,16,04,2.60
2020,02,02,16,05,1.80
2020,02,02,16,06,2.30
2020,02,02,16,07,3.20
2020,02,02,16,08,2.80
2020,02,02,16,09,2.80
2020,02,02,16,10,4.80
2020,02,02,16,11,4.50
2020,02,02,16,12,3.00
2020,02,02,16,13,3.10
2020,02,02,16,14,4.00
2020,02,02,16,15,4.70
2020,02,02,16,16,3.50
2020,02,02,16,17,4.10
2020,02,02,16,18,3.60
2020,02,02,16,19,3.40
2020,02,02,16,20,1.50
2020,02,02,16,21,0.80
2020,02,02,16,22,1.20
2020,02,02,16,23,1.30
2020,02,02,16,24,1.00
2020,02,02,16,25,0.00
2020,02,02,16,26,2.20
2020,02,02,16,27,3.30
2020,02,02,16,28,3.50
2020,02,02,16,29,5.90
2020,02,02,16,30,6.80
2020,02,02,16,31,5.40
2020,02,02,16,32,7.50
2020,02,02,16,33,5.70
2020,02,02,16,34,4.10
2020,02,02,16,35,2.90
2020,02,02,16,36,1.50
2020,02,02,16,37,1.50
2020,02,02,16,38,1.30
2020,02,02,16,39,0.80
2020,02,02,16,40,2.80
2020,02,02,16,41,2.90
2020,02,02,16,42,6.10
2020,02,02,16,43,4.50
2020,02,02,16,44,2.80
2020,02,02,16,45,4.70
2020,02,02,16,46,4.90
2020,02,02,16,47,4.30
2020,02,02,16,48,5.40
2020,02,02,16,49,2.90
2020,02,02,16,50,3.80
2020,02,02,16,51,5.80
2020,02,02,16,52,3.90
2020,02,02,16,53,2.30
2020,02,02,16,54,3.40
2020,02,02,16,55,8.00
2020,02,02,16,56,6.70
2020,02,02,16,57,4.80
2020,02,02,16,58,7.10
2020,02,02,16,59,5.30
2020,02,02,17,00,7.10
2020,02,02,17,01,7.30
2020,02,02,17,02,8.80
2020,02,02,17,03,8.00
2020,02,02,17,04,7.30
2020,02,02,17,05,6.80
2020,02,02,17,06,7.00
2020,02,02,17,07,6.10
2020,02,02,17,08,5.40
2020,02,02,17,09,6.00
2020,02,02,17,10,3.90
2020,02,02,17,11,3.40
2020,02,02,17,12,4.30
2020,02,02,17,13,3.90
2020,02,02,17,14,4.70
2020,02,02,17,15,1.90
2020,02,02,17,16,0.80
2020,02,02,17,17,0.80
2020,02,02,17,18,2.00
2020,02,02,17,19,2.30
2020,02,02,17,20,4.50
2020,02,02,17,21,6.10
2020,02,02,17,22,4.40
2020,02,02,17,23,4.20
2020,02,02,17,24,4.40
2020,02,02,17,25,4.70
2020,02,02,17,26,4.30
2020,02,02,17,27,4.70
2020,02,02,17,28,5.50
2020,02,02,17,29,3.60
2020,02,02,17,30,2.90
2020,02,02,17,31,1.30
2020,02,02,17,32,1.80
2020,02,02,17,33,2.90
2020,02,02,17,34,1.20
2020,02,02,17,35,1.70
2020,02,02,17,36,0.50
2020,02,02,17,37,1.80
2020,02,02,17,38,1.70
2020,02,02,17,39,4.30
2020,02,02,17,40,3.50
2020,02,02,17,41,2.10
2020,02,02,17,42,0.00
2020,02,02,17,43,2.40
2020,02,02,17,44,1.90
2020,02,02,17,45,2.30
2020,02,02,17,46,3.80
2020,02,02,17,47,2.10
2020,02,02,17,48,3.30
2020,02,02,17,49,2.50
2020,02,02,17,50,2.30
2020,02,02,17,51,3.50
2020,02,02,17,52,3.30
2020,02,02,17,53,3.70
2020,02,02,17,54,5.60
2020,02,02,17,55,7.10
2020,02,02,17,56,8.40
2020,02,02,17,57,8.30
2020,02,02,17,58,6.60
2020,02,02,17,59,4.80
2020,02,02,18,00,3.90
2020,02,02,18,01,5.30
2020,02,02,18,02,4.10
2020,02,02,18,03,2.20
2020,02,02,18,04,1.60
2020,02,02,18,05,0.20